Good Hope, IL

5:41 PM CDT on July 29, 2016 (GMT -0500)
Macomb Municipal

Weather History for KMQB - March, 2014

Change the Weather History Date:

Tuesday, March 25, 2014

  Actual Average (KBRL) Record (KBRL)
Temperature  
Mean Temperature 26 °F 46 °F  
Max Temperature 31 °F 56 °F 84 °F (1907)
Min Temperature 19 °F 35 °F 5 °F (1960)
Degree Days  
Heating Degree Days 40 20  
Month to date heating degree days 620  
Since 1 July heating degree days 4998  
Cooling Degree Days 0 0  
Month to date cooling degree days 0  
Year to date cooling degree days 0  
Moisture  
Dew Point 18 °F    
Average Humidity 73    
Maximum Humidity 96    
Minimum Humidity 48    
Precipitation  
Precipitation 0.00 in 0.09 in 0.64 in (1957)
Month to date precipitation 2.20  
Year to date precipitation 5.06  
Sea Level Pressure  
Sea Level Pressure 30.24 in    
Wind  
Wind Speed 13 mph (NW)    
Max Wind Speed 28 mph    
Max Gust Speed 34 mph    
Visibility 10 miles    
Events      
T = Trace of Precipitation, MM = Missing Value Source: NWS Daily Summary

Daily Weather History Graph

Daily Weather History Graph

Search for Another Location

Airport or City:

Trip Planner

Search our weather history database for the weather conditions in past years. The results will help you decide how hot, cold, wet, or windy it might be!

Date:

Astronomy

Mar. 25, 2014 Rise Set
Actual Time 6:57 AM CDT 7:19 PM CDT
Civil Twilight 6:30 AM CDT 7:47 PM CDT
Nautical Twilight 5:58 AM CDT 8:19 PM CDT
Astronomical Twilight 5:25 AM CDT 8:52 PM CDT
Moon 3:20 AM CDT (3/25) 1:49 PM CDT (3/25)
Length of Visible Light 13h 16m
Length of Day
12h 22m
Waning Crescent, 32% of the Moon is Illuminated
Mar 25
Waning Crescent
Mar 30
New
Apr 7
First Quarter
Apr 15
Full
Apr 22
Last Quarter

Hourly Weather History & Observations

Time (CDT) Temp. Windchill Dew Point Humidity Pressure Visibility Wind Dir Wind Speed Gust Speed Precip Events Conditions
12:15 AM 31.1 °F 23.1 °F 30.0 °F 96% 30.15 in 10.0 mi West 9.2 mph - N/A   Overcast
12:35 AM 31.6 °F 22.1 °F 30.0 °F 94% 30.15 in 10.0 mi West 12.7 mph - N/A   Overcast
12:55 AM 31.8 °F 22.3 °F 30.0 °F 93% 30.14 in 10.0 mi West 12.7 mph - N/A   Overcast
1:15 AM 31.8 °F 19.9 °F 29.8 °F 92% 30.15 in 2.0 mi WNW 19.6 mph - N/A   Overcast
1:35 AM 29.5 °F 17.2 °F 26.4 °F 88% 30.15 in 4.0 mi NW 18.4 mph 25.3 mph N/A   Overcast
1:55 AM 29.3 °F 20.8 °F 26.6 °F 90% 30.14 in 10.0 mi NW 9.2 mph - N/A   Mostly Cloudy
2:15 AM 29.3 °F 20.2 °F 26.8 °F 90% 30.15 in 10.0 mi NW 10.4 mph - N/A   Mostly Cloudy
2:35 AM 28.8 °F 21.7 °F 26.6 °F 92% 30.14 in 10.0 mi NW 6.9 mph - N/A   Mostly Cloudy
2:55 AM 28.0 °F 19.3 °F 26.1 °F 92% 30.14 in 10.0 mi NW 9.2 mph - N/A   Scattered Clouds
3:15 AM 27.1 °F 17.5 °F 25.2 °F 92% 30.14 in 10.0 mi NW 10.4 mph - N/A   Clear
3:35 AM 26.6 °F 17.5 °F 24.6 °F 92% 30.14 in 10.0 mi WNW 9.2 mph - N/A   Clear
3:55 AM 26.1 °F 16.8 °F 23.7 °F 91% 30.14 in 10.0 mi NW 9.2 mph - N/A   Clear
4:15 AM 25.9 °F 16.6 °F 23.5 °F 91% 30.14 in 10.0 mi NW 9.2 mph - N/A   Mostly Cloudy
4:35 AM 25.3 °F 16.0 °F 22.8 °F 90% 30.15 in 10.0 mi NW 9.2 mph - N/A   Scattered Clouds
4:55 AM 24.6 °F 15.8 °F 22.1 °F 90% 30.16 in 10.0 mi NW 8.1 mph - N/A   Clear
5:15 AM 23.9 °F 13.5 °F 21.9 °F 92% 30.16 in 10.0 mi WNW 10.4 mph - N/A   Clear
5:35 AM 23.7 °F 14.0 °F 21.6 °F 91% 30.16 in 10.0 mi WNW 9.2 mph - N/A   Clear
5:55 AM 23.4 °F 14.3 °F 21.2 °F 91% 30.16 in 10.0 mi WNW 8.1 mph - N/A   Clear
6:15 AM 22.8 °F 13.6 °F 21.0 °F 93% 30.17 in 10.0 mi West 8.1 mph - N/A   Clear
6:35 AM 22.6 °F 12.6 °F 21.0 °F 93% 30.17 in 10.0 mi WNW 9.2 mph - N/A   Clear
6:55 AM 22.6 °F 11.3 °F 20.7 °F 92% 30.18 in 10.0 mi WNW 11.5 mph - N/A   Clear
7:15 AM 22.8 °F 12.2 °F 20.7 °F 91% 30.19 in 10.0 mi WNW 10.4 mph - N/A   Clear
7:35 AM 23.5 °F 11.8 °F 21.0 °F 90% 30.20 in 10.0 mi WNW 12.7 mph - N/A   Clear
7:55 AM 24.3 °F 12.7 °F 20.8 °F 87% 30.20 in 10.0 mi NW 12.7 mph - N/A   Clear
8:15 AM 25.3 °F 13.1 °F 21.4 °F 85% 30.20 in 10.0 mi NW 15.0 mph - N/A   Clear
8:35 AM 26.1 °F 12.3 °F 20.7 °F 80% 30.21 in 10.0 mi NW 19.6 mph - N/A   Clear
8:55 AM 26.4 °F 11.8 °F 18.9 °F 73% 30.21 in 10.0 mi NW 23.0 mph 29.9 mph N/A   Scattered Clouds
9:15 AM 27.0 °F 13.5 °F 19.0 °F 72% 30.22 in 10.0 mi NW 19.6 mph 24.2 mph N/A   Scattered Clouds
9:35 AM 26.2 °F 11.5 °F 17.4 °F 69% 30.23 in 10.0 mi NNW 23.0 mph 28.8 mph N/A   Mostly Cloudy
9:55 AM 27.5 °F 12.0 °F 17.1 °F 65% 30.24 in 10.0 mi NNW 27.6 mph 31.1 mph N/A   Scattered Clouds
10:15 AM 27.7 °F 13.1 °F 16.9 °F 64% 30.25 in 10.0 mi NNW 24.2 mph 31.1 mph N/A   Mostly Cloudy
10:35 AM 28.2 °F 14.5 °F 17.1 °F 63% 30.26 in 10.0 mi NNW 21.9 mph 33.4 mph N/A   Mostly Cloudy
10:55 AM 27.3 °F 12.7 °F 14.7 °F 59% 30.27 in 10.0 mi NW 24.2 mph 32.2 mph N/A   Overcast
11:15 AM 28.0 °F 14.6 °F 16.0 °F 61% 30.27 in 10.0 mi NW 20.7 mph 31.1 mph N/A   Overcast
11:35 AM 28.9 °F 15.1 °F 16.0 °F 58% 30.28 in 10.0 mi NW 23.0 mph 32.2 mph N/A   Overcast
11:55 AM 28.9 °F 14.8 °F 15.6 °F 58% 30.28 in 10.0 mi NW 24.2 mph 32.2 mph N/A   Mostly Cloudy
12:15 PM 28.9 °F 14.3 °F 13.1 °F 52% 30.28 in 10.0 mi NW 26.5 mph 29.9 mph N/A   Scattered Clouds
12:35 PM 28.9 °F 14.5 °F 11.7 °F 49% 30.29 in 10.0 mi NW 25.3 mph 33.4 mph N/A   Clear
1:15 PM 29.1 °F 15.4 °F 12.4 °F 50% 30.29 in 10.0 mi WNW 23.0 mph 34.5 mph N/A   Clear
1:35 PM 28.8 °F 14.3 °F 12.7 °F 51% 30.29 in 10.0 mi WNW 25.3 mph 33.4 mph N/A   Scattered Clouds
1:55 PM 29.8 °F 15.7 °F 14.2 °F 52% 30.29 in 10.0 mi NW 25.3 mph 31.1 mph N/A   Scattered Clouds
2:15 PM 29.1 °F 15.7 °F 11.7 °F 48% 30.28 in 10.0 mi NW 21.9 mph 32.2 mph N/A   Scattered Clouds
2:35 PM 28.9 °F 15.4 °F 13.3 °F 52% 30.28 in 10.0 mi NW 21.9 mph 29.9 mph N/A   Mostly Cloudy
2:55 PM 30.0 °F 17.2 °F 12.7 °F 49% 30.28 in 10.0 mi NW 20.7 mph 31.1 mph N/A   Mostly Cloudy
3:15 PM 28.9 °F 15.1 °F 13.5 °F 52% 30.28 in 10.0 mi WNW 23.0 mph 29.9 mph N/A   Mostly Cloudy
3:35 PM 29.8 °F 17.3 °F 13.5 °F 51% 30.28 in 10.0 mi NW 19.6 mph 29.9 mph N/A   Scattered Clouds
3:55 PM 30.4 °F 17.3 °F 14.5 °F 52% 30.27 in 10.0 mi NW 21.9 mph 27.6 mph N/A   Mostly Cloudy
4:15 PM 30.2 °F 17.8 °F 14.2 °F 51% 30.27 in 10.0 mi WNW 19.6 mph 27.6 mph N/A   Mostly Cloudy
4:35 PM 28.9 °F 15.8 °F 12.2 °F 50% 30.27 in 10.0 mi NW 20.7 mph - N/A   Scattered Clouds
4:55 PM 29.1 °F 17.5 °F 12.0 °F 49% 30.28 in 10.0 mi WNW 16.1 mph - N/A   Clear
5:15 PM 29.1 °F 16.7 °F 12.9 °F 51% 30.28 in 10.0 mi NW 18.4 mph 24.2 mph N/A   Clear
5:35 PM 28.6 °F 16.0 °F 12.9 °F 52% 30.28 in 10.0 mi WNW 18.4 mph 23.0 mph N/A   Scattered Clouds
5:55 PM 27.9 °F 15.9 °F 12.4 °F 52% 30.28 in 10.0 mi NW 16.1 mph 23.0 mph N/A   Scattered Clouds
6:15 PM 28.6 °F 16.4 °F 12.0 °F 50% 30.28 in 10.0 mi NW 17.3 mph 23.0 mph N/A   Scattered Clouds
6:35 PM 28.2 °F 15.5 °F 12.9 °F 53% 30.28 in 10.0 mi NW 18.4 mph 23.0 mph N/A   Mostly Cloudy
6:55 PM 27.5 °F 15.4 °F 13.1 °F 55% 30.28 in 10.0 mi WNW 16.1 mph 20.7 mph N/A   Scattered Clouds
7:15 PM 26.4 °F 16.6 °F 13.8 °F 59% 30.28 in 10.0 mi NW 10.4 mph - N/A   Clear
7:35 PM 25.7 °F 15.7 °F 14.2 °F 62% 30.28 in 10.0 mi NW 10.4 mph - N/A   Clear
7:55 PM 24.8 °F 15.3 °F 14.0 °F 64% 30.28 in 10.0 mi NW 9.2 mph - N/A   Clear
8:15 PM 23.9 °F 15.0 °F 14.7 °F 68% 30.29 in 10.0 mi NW 8.1 mph - N/A   Clear
8:35 PM 23.7 °F 16.6 °F 14.7 °F 69% 30.28 in 10.0 mi NW 5.8 mph - N/A   Clear
8:55 PM 23.0 °F 18.4 °F 14.5 °F 70% 30.29 in 10.0 mi NNW 3.5 mph - N/A   Clear
9:15 PM 22.5 °F 17.8 °F 16.3 °F 77% 30.30 in 10.0 mi NNW 3.5 mph - N/A   Clear
9:35 PM 22.1 °F - 16.9 °F 80% 30.30 in 10.0 mi Calm Calm - N/A   Clear
9:55 PM 21.6 °F 16.8 °F 16.2 °F 80% 30.30 in 10.0 mi NNW 3.5 mph - N/A   Clear
10:15 PM 21.7 °F - 16.0 °F 78% 30.31 in 10.0 mi Calm Calm - N/A   Clear
10:35 PM 21.7 °F - 15.6 °F 77% 30.30 in 10.0 mi Calm Calm - N/A   Clear
10:55 PM 21.0 °F - 17.2 °F 85% 30.30 in 10.0 mi Calm Calm - N/A   Clear
11:15 PM 21.2 °F - 17.1 °F 84% 30.30 in 10.0 mi Calm Calm - N/A   Clear
11:35 PM 20.7 °F - 17.1 °F 86% 30.30 in 10.0 mi Calm Calm - N/A   Clear
11:55 PM 19.9 °F - 17.6 °F 91% 30.30 in 10.0 mi Calm Calm - N/A   Clear